Flag for United Kingdom Weather past 2 weeks in Leeds, England, United Kingdom

Now
46 °F

Passing clouds.


Feels Like: 44 °F
Forecast: 43 / 55 °F
Wind: 6 mph from West

Location: Leeds And Bradford

Current Time: May 29, 2015 at 12:27:07 AM

Latest Report: May 28, 2015 at 11:50 PM


Visibility: N/A

Pressure: 29.80 "Hg

Humidity: 82%

Dew point: 41 °F

Location of LeedsLocation

Historic Weather in Leeds — Graph

°F

Leeds temperature yesterday

Maximum temperature yesterday: 54 °F (at 2:20 PM)
Minimum temperature yesterday: 45 °F (at 3:50 AM)
Average temperature yesterday: 49 °F

Past Weeks' High & Low Weather Summary

 TemperatureHumidityPressure
High61 °F (May 22, 1:20 PM)100% (May 16, 2:20 AM)30.30 "Hg (May 16, 2:20 AM)
Low39 °F (May 15, 5:20 AM)48% (May 15, 2:20 PM)29.39 "Hg (May 19, 3:20 AM)
Average49 °F78%30.02 "Hg
* Reported May 13 10:20 PM — May 28 10:20 PM, Leeds, Weather by CustomWeather, © 2015

Note: Actual official high and low records may vary slightly from our data, if they occured in-between our weather recording intervals... More about our weather records

Advertising

Leeds weather history for previous 24 hours

 ConditionsComfort  
Time TempWeatherWind HumidityBarometerVisibility
10:20 PM
Thu, May 28
46 °FScattered clouds.8 mph76%29.83 "HgN/A
9:50 PM48 °FScattered clouds.10 mph71%29.83 "HgN/A
9:20 PM48 °FScattered clouds.10 mph71%29.83 "HgN/A
8:50 PM48 °FScattered clouds.15 mph71%29.83 "HgN/A
8:20 PM50 °FScattered clouds.16 mph67%29.83 "HgN/A
7:50 PM50 °FScattered clouds.18 mph62%29.83 "HgN/A
7:20 PM52 °FScattered clouds.18 mph58%29.83 "HgN/A
6:50 PM54 °FScattered clouds.20 mph58%29.83 "HgN/A
6:20 PM52 °FScattered clouds.21 mph62%29.86 "HgN/A
5:50 PM54 °FScattered clouds.18 mph54%29.86 "HgN/A
5:20 PM52 °FScattered clouds.22 mph58%29.86 "HgN/A
4:50 PM52 °FScattered clouds.18 mph62%29.86 "HgN/A
4:20 PM52 °FScattered clouds.21 mph58%29.86 "HgN/A
3:50 PM52 °FScattered clouds.20 mph62%29.89 "HgN/A
3:20 PM50 °FSprinkles. Scattered clouds.20 mph67%29.89 "HgN/A
2:50 PM52 °FScattered clouds.21 mph62%29.86 "HgN/A
2:20 PM54 °FScattered clouds.22 mph58%29.86 "HgN/A
1:50 PM52 °FScattered clouds.18 mph62%29.86 "HgN/A
1:20 PM50 °FSprinkles. Scattered clouds.18 mph67%29.86 "HgN/A
12:50 PM52 °FSprinkles. Scattered clouds.22 mph62%29.86 "HgN/A
12:20 PM52 °FScattered clouds.18 mph62%29.86 "HgN/A
11:50 AM52 °FScattered clouds.21 mph62%29.86 "HgN/A
11:20 AM48 °FSprinkles. Scattered clouds.18 mph71%29.86 "HgN/A
10:50 AM50 °FScattered clouds.20 mph67%29.86 "HgN/A
10:20 AM48 °FSprinkles. Scattered clouds.20 mph71%29.86 "HgN/A
9:50 AM50 °FScattered clouds.16 mph67%29.86 "HgN/A
9:20 AM48 °FScattered clouds.20 mph66%29.83 "HgN/A
8:50 AM46 °FScattered clouds.13 mph71%29.86 "HgN/A
8:20 AM46 °FScattered clouds.13 mph76%29.83 "HgN/A
7:50 AM46 °FScattered clouds.16 mph76%29.83 "HgN/A
7:20 AM46 °FScattered clouds.20 mph76%29.83 "HgN/A
6:50 AM45 °FScattered clouds.17 mph81%29.80 "HgN/A
6:20 AM45 °FScattered clouds.18 mph87%29.80 "HgN/A
5:50 AM45 °FScattered clouds.22 mph87%29.77 "HgN/A
5:20 AM45 °FPassing clouds.18 mph87%29.77 "HgN/A
4:20 AM45 °FPassing clouds.21 mph87%29.77 "HgN/A
3:50 AM45 °FPassing clouds.18 mph93%29.77 "HgN/A
3:20 AM46 °FPassing clouds.18 mph87%29.77 "HgN/A
2:50 AM46 °FPassing clouds.18 mph87%29.77 "HgN/A
2:20 AM46 °FPassing clouds.20 mph87%29.77 "HgN/A
1:50 AM46 °FPassing clouds.18 mph87%29.77 "HgN/A
1:20 AM48 °FPassing clouds.21 mph82%29.80 "HgN/A
12:50 AM48 °FPassing clouds.22 mph87%29.80 "HgN/A
12:20 AM50 °FPassing clouds.21 mph88%29.80 "HgN/A
Weather by CustomWeather, © 2015

See weather overviewHow to use our weather pages